Showing default

HORYU 2, 38340

Orbit data source: Space-Track

HORYU 2, 38340 is a payload satellite owned by Kyutech (JP) in SSO that was launched on Thu, 17 May 2012 UTC via an H-IIA 202 launch vehicle from the Tanegashima Space Center (TNSTA). Payload-class satellites include a variety of spacecraft equipped with specific instruments for various scientific and technological missions. These include communications satellites like Starlink; space stations such as the ISS; scientific satellites like the Hubble; Earth observation satellites from companies like Planet Labs, Umbra, and HawkEye 360; GPS; miniature CubeSats for education and research; and military/defense satellites.

Loading next visibility...
Identifier
38340, 2012-025D
Orbit
SSO
Country
Flag of JPJP / JPN
Related business
Manufacturer
Kyutech
Mission
Non-operational Amateur Technology
Bus & Motor
HORYU, Unknown motor
Mass
7 kg wet, 7 kg dry
Launch date (UTC)
2012-05-17 (14 years ago)
Launch vehicle
H-IIA 202
Launch site
Tanegashima Space Center (TNSTA)
Object type
Payload
Rocket body
Debris
Shape & HBR
Box, 0.3 m
Radar Cross Section
0.135 m², Medium (>0.1 m² and < 1m²)

Expand to show TLE details & history
Last TLE update: 7 hours ago

TLE from 7 hours ago
0 HORYU 2
1 38340U 12025D   26263.64928403  .00002079  00000-0  21353-3 0  9998
2 38340  98.2302  40.5969 0007187 223.1295 136.9360 14.91540502762952
Epoch: 2026-09-20T15:34Z
TLE epoch observation values (Epoch: 2026-09-20T15:34:58.140Z)
Latitude
0.00001°
Longitude
167.31421°
Altitude
599.821 km
Speed
7.558 km/s
True Right ascension
02h 42m 23s
True Declination
0° 00' 00"
Sunlit
Object was in full shadow at epoch
Visualization orbit readout
Latitude
Unknown
Longitude
Unknown
Altitude
Unknown
Speed
Unknown
Apparent Right ascension
Unknown
Apparent Declination
Unknown
Sunlit
N/A
Visualization observer readout
Local Sidereal Time
15:47:15
Azimuth
Unknown
Elevation
Unknown
Doppler factor
Unknown
Orbital elements
Apogee altitude
595.18 km
Perigee altitude
585.164 km
Semi-major axis
6,968.309 km
Eccentricity
0.00072
Inclination
98.2302°
RAAN
40.5969°
Arg. of periapsis
223.1295°
True anomaly
136.9922°
Mean anomaly
136.936°
Eccentric anomaly
136.9641°
Mean motion
3.73123 °/min
Orbital period
96.48 mins
BSTAR
0.00021353
Loading maneuver chart data...
Computing Atmospheric mass density...
Loading historical data...
Loading historical data...
Loading historical data...
Loading historical data...
Loading historical data...
Loading historical data...
Loading historical data...

Documentation

Showing up to 5 results
|